TimeCST,TemperatureF,Dew PointF,Humidity,Sea Level PressureIn,VisibilityMPH,Wind Direction,Wind SpeedMPH,Gust SpeedMPH,PrecipitationIn,Events,Conditions,WindDirDegrees,DateUTC
12:15 AM,18.0,14.9,88,30.35,4.0,NNE,20.7,25.3,N/A,,Overcast,30,2014-02-26 06:15:00
12:30 AM,17.2,13.6,86,30.36,5.0,NNE,15.0,26.5,N/A,,Overcast,20,2014-02-26 06:30:00
12:55 AM,16.7,13.1,86,30.37,5.0,NNE,15.0,-,N/A,,Overcast,20,2014-02-26 06:55:00
1:15 AM,16.2,12.6,86,30.35,5.0,NNE,15.0,20.7,N/A,,Overcast,20,2014-02-26 07:15:00
1:35 AM,15.8,11.8,84,30.36,10.0,NNE,11.5,-,N/A,,Overcast,20,2014-02-26 07:35:00
1:55 AM,15.6,10.4,80,30.35,10.0,NNE,11.5,-,N/A,Snow,Light Snow,20,2014-02-26 07:55:00
2:15 AM,15.6,9.3,76,30.35,10.0,North,12.7,18.4,N/A,,Overcast,10,2014-02-26 08:15:00
2:35 AM,15.6,8.2,73,30.34,10.0,NNE,15.0,-,N/A,,Overcast,20,2014-02-26 08:35:00
2:55 AM,15.3,7.5,71,30.34,10.0,North,11.5,-,N/A,,Overcast,10,2014-02-26 08:55:00
3:10 AM,15.1,6.8,70,30.33,10.0,NNE,11.5,-,N/A,,Overcast,20,2014-02-26 09:10:00
3:35 AM,14.9,6.6,70,30.32,10.0,North,13.8,18.4,N/A,,Overcast,10,2014-02-26 09:35:00
3:55 AM,14.9,5.7,67,30.32,10.0,North,15.0,19.6,N/A,,Overcast,10,2014-02-26 09:55:00
4:15 AM,14.9,5.9,68,30.32,10.0,North,15.0,19.6,N/A,,Overcast,10,2014-02-26 10:15:00
4:35 AM,14.7,5.9,68,30.32,10.0,North,13.8,18.4,N/A,,Mostly Cloudy,360,2014-02-26 10:35:00
4:55 AM,13.1,5.4,71,30.32,10.0,North,10.4,-,N/A,,Scattered Clouds,360,2014-02-26 10:55:00
5:15 AM,12.6,5.4,73,30.31,10.0,North,10.4,-,N/A,,Clear,360,2014-02-26 11:15:00
5:35 AM,11.8,5.0,74,30.31,10.0,North,6.9,-,N/A,,Clear,350,2014-02-26 11:35:00
5:55 AM,11.3,5.0,76,30.31,10.0,North,5.8,-,N/A,,Clear,350,2014-02-26 11:55:00
6:15 AM,10.8,5.0,78,30.30,10.0,North,6.9,-,N/A,,Clear,360,2014-02-26 12:15:00
6:35 AM,10.2,4.8,79,30.30,10.0,North,5.8,-,N/A,,Clear,350,2014-02-26 12:35:00
6:55 AM,9.5,4.5,80,30.30,10.0,WNW,3.5,-,N/A,,Clear,300,2014-02-26 12:55:00
7:15 AM,8.6,3.9,81,30.30,10.0,WNW,4.6,-,N/A,,Clear,290,2014-02-26 13:15:00
7:35 AM,9.1,4.1,80,30.29,10.0,West,4.6,-,N/A,,Clear,280,2014-02-26 13:35:00
7:55 AM,10.9,5.9,80,30.29,10.0,WNW,3.5,-,N/A,,Clear,300,2014-02-26 13:55:00
8:15 AM,13.1,7.3,78,30.28,10.0,WNW,3.5,-,N/A,,Clear,290,2014-02-26 14:15:00
8:35 AM,14.5,7.3,73,30.27,10.0,WNW,4.6,-,N/A,,Clear,300,2014-02-26 14:35:00
8:55 AM,16.3,7.7,69,30.26,10.0,WNW,8.1,-,N/A,,Clear,300,2014-02-26 14:55:00
9:15 AM,17.1,7.5,66,30.26,10.0,West,9.2,-,N/A,,Clear,280,2014-02-26 15:15:00
9:35 AM,18.3,7.3,62,30.26,10.0,West,5.8,-,N/A,,Clear,280,2014-02-26 15:35:00
9:55 AM,19.8,7.5,59,30.25,10.0,West,8.1,-,N/A,,Clear,270,2014-02-26 15:55:00
10:15 AM,21.7,8.1,56,30.25,10.0,WSW,5.8,-,N/A,,Clear,250,2014-02-26 16:15:00
10:35 AM,21.7,7.5,54,30.24,10.0,West,6.9,-,N/A,,Clear,260,2014-02-26 16:35:00
10:55 AM,23.2,7.7,52,30.23,10.0,West,5.8,-,N/A,,Clear,260,2014-02-26 16:55:00
11:15 AM,25.0,8.1,49,30.23,10.0,West,8.1,-,N/A,,Clear,270,2014-02-26 17:15:00
11:35 AM,26.1,7.9,46,30.22,10.0,WSW,8.1,-,N/A,,Clear,240,2014-02-26 17:35:00
11:55 AM,27.9,8.4,44,30.21,10.0,West,3.5,-,N/A,,Clear,260,2014-02-26 17:55:00
12:15 PM,28.8,8.1,42,30.19,10.0,SW,4.6,-,N/A,,Clear,220,2014-02-26 18:15:00
12:35 PM,31.1,8.1,38,30.18,10.0,West,4.6,-,N/A,,Clear,270,2014-02-26 18:35:00
12:55 PM,31.8,8.2,37,30.16,10.0,WSW,3.5,-,N/A,,Clear,250,2014-02-26 18:55:00
1:15 PM,33.6,9.5,37,30.14,10.0,SW,5.8,-,N/A,,Clear,230,2014-02-26 19:15:00
1:35 PM,34.2,9.5,36,30.13,10.0,West,8.1,-,N/A,,Clear,260,2014-02-26 19:35:00
1:55 PM,35.8,10.0,34,30.11,10.0,Calm,Calm,-,N/A,,Clear,0,2014-02-26 19:55:00
2:15 PM,37.2,11.1,34,30.10,10.0,West,8.1,-,N/A,,Clear,260,2014-02-26 20:15:00
2:35 PM,37.4,10.9,34,30.09,10.0,NW,6.9,-,N/A,,Clear,310,2014-02-26 20:35:00
2:50 PM,39.6,12.0,32,30.08,10.0,Calm,Calm,-,N/A,,Clear,0,2014-02-26 20:50:00
3:15 PM,39.2,12.6,34,30.07,10.0,West,4.6,-,N/A,,Clear,260,2014-02-26 21:15:00
3:35 PM,39.7,13.1,34,30.07,10.0,NW,4.6,17.3,N/A,,Clear,320,2014-02-26 21:35:00
3:55 PM,40.5,14.0,34,30.06,10.0,West,8.1,-,N/A,,Clear,260,2014-02-26 21:55:00
4:15 PM,41.5,14.5,33,30.06,10.0,West,4.6,-,N/A,,Clear,280,2014-02-26 22:15:00
4:35 PM,41.2,14.9,34,30.05,10.0,West,9.2,-,N/A,,Clear,260,2014-02-26 22:35:00
4:55 PM,41.9,15.4,34,30.05,10.0,West,8.1,-,N/A,,Clear,280,2014-02-26 22:55:00
5:15 PM,41.5,15.6,35,30.03,10.0,West,6.9,-,N/A,,Clear,260,2014-02-26 23:15:00
5:35 PM,41.5,16.0,36,30.03,10.0,WSW,6.9,-,N/A,,Clear,250,2014-02-26 23:35:00
5:55 PM,41.0,16.2,37,30.03,10.0,West,6.9,-,N/A,,Clear,260,2014-02-26 23:55:00
6:15 PM,39.4,15.8,38,30.03,10.0,West,4.6,-,N/A,,Clear,260,2014-02-27 00:15:00
6:35 PM,37.4,15.8,41,30.03,10.0,Calm,Calm,-,N/A,,Clear,0,2014-02-27 00:35:00
6:55 PM,35.8,15.8,44,30.04,10.0,Calm,Calm,-,N/A,,Clear,0,2014-02-27 00:55:00
7:15 PM,35.6,16.2,45,30.04,10.0,Calm,Calm,-,N/A,,Clear,0,2014-02-27 01:15:00
7:35 PM,34.7,16.0,46,30.05,10.0,Calm,Calm,-,N/A,,Clear,0,2014-02-27 01:35:00
7:55 PM,34.7,16.5,48,30.05,10.0,Calm,Calm,-,N/A,,Clear,0,2014-02-27 01:55:00
8:15 PM,33.1,16.2,50,30.05,10.0,South,3.5,-,N/A,,Clear,180,2014-02-27 02:15:00
8:35 PM,31.3,15.4,52,30.05,10.0,SSW,4.6,-,N/A,,Clear,200,2014-02-27 02:35:00
8:55 PM,30.0,14.5,53,30.06,10.0,SSW,8.1,-,N/A,,Clear,200,2014-02-27 02:55:00
9:10 PM,27.9,13.8,56,30.06,10.0,SSW,9.2,-,N/A,,Clear,210,2014-02-27 03:10:00
9:35 PM,26.4,12.6,56,30.06,10.0,SSW,8.1,-,N/A,,Clear,210,2014-02-27 03:35:00
9:55 PM,27.3,12.2,53,30.06,10.0,SSW,8.1,-,N/A,,Clear,210,2014-02-27 03:55:00
10:15 PM,27.5,11.8,52,30.07,10.0,SSW,11.5,-,N/A,,Clear,210,2014-02-27 04:15:00
10:35 PM,26.6,11.1,52,30.06,10.0,SSW,9.2,-,N/A,,Clear,210,2014-02-27 04:35:00
10:55 PM,26.2,10.9,52,30.06,10.0,SSW,9.2,-,N/A,,Clear,210,2014-02-27 04:55:00
11:15 PM,26.2,10.9,52,30.05,10.0,SW,9.2,-,N/A,,Clear,220,2014-02-27 05:15:00
11:35 PM,25.2,10.6,54,30.05,10.0,SW,9.2,-,N/A,,Clear,220,2014-02-27 05:35:00
11:50 PM,25.0,10.4,54,30.05,10.0,SW,9.2,-,N/A,,Clear,220,2014-02-27 05:50:00